World > North America > United States > Texas

Hourly Rayford, TX Regional Weather

Feedback E-mail the Weather

Quick WX

Rayford, TX Weather Maps

°F °C°F °C
Rayford Weather Map
UTC Time: 7/4/2022, 06:46
Your Time:

Rayford, TX Regional Weather

Expires:202207040700;;649643
ASUS44 KSJT 040602
RWRSJT
WEST CENTRAL TEXAS REGIONAL WEATHER ROUNDUP
NATIONAL WEATHER SERVICE SAN ANGELO TX
100 AM CDT MON JUL 04 2022

NOTE: "FAIR" INDICATES FEW OR NO CLOUDS BELOW 12,000 FEET WITH NO
SIGNIFICANT WEATHER AND/OR OBSTRUCTIONS TO VISIBILITY.


TXZ163-177-195>197-199-213-226-237-040700-
SOUTHEAST TEXAS
  
CITY           SKY/WX    TMP DP  RH WIND       PRES   REMARKS
COLLEGE STN    CLEAR     84  73  69 S12       30.04R                  
CALDWELL       NOT AVBL                                               
CROCKETT       CLEAR     81  75  83 S5        30.03S                  
BRENHAM        CLEAR     82  75  80 S9        30.05S                  
HUNTSVILLE     CLEAR     84  73  69 S7        30.05R                  
CONROE         CLEAR     81  74  79 MISG      30.05S                  
HOUSTON BUSH   CLEAR     82  75  79 S3        30.04S                  
HOUSTON HOBBY  CLEAR     81  76  84 S5        30.03F                  
PERLAND        CLEAR     80  76  87 CALM      30.05S                  
WHARTON        CLEAR     77  74  92 SE5       30.05S                  
$$


SKY/WX - Weather  TMP - Temperature  DP - Dew Point  RH - Humidity
WIND - Wind Direction/Speed PRES - Barometric Pressure VSB - Visibility
WCI - Wind Chill Index E13G22 Wind - East Wind 13 mph/Gusts of 22 mph

Trending Headlines

Rayford Radar Loop



Rayford Quick Facts


National Two Day Weather Forecast


E-mail the Rayford Weather Forecast

Voice your opinion or tell us about page issues...